CAPE
857 726 1256 1107 1189 1403 1479 1546 1616 1769 1925 1860 1804 1778 1789 1791 1759 1616 1534 1522 1587 1676 1569 1334 1701 1677 1311 1251 1206 1150 1209 1063 927 939 947 895 570 632 664 761 681 463 861
744 1016 1239 1202 1452 1440 1570 1629 1705 1896 2119 2103 1977 1894 1855 1822 1691 1659 1773 1657 1760 1736 1368 1595 1803 1591 1263 1051 1149 1074 1025 907 821 786 891 719 633 462 545 635 658 541 768
927 1123 1302 1357 1545 1601 1689 1737 1891 2081 2276 2250 2087 1987 1967 1896 1765 1776 1846 1716 1767 1485 1030 1635 1662 1410 1227 1252 1094 995 900 810 707 686 699 283 347 516 559 606 732 748 754
1036 1126 1304 1488 1588 1284 1767 1783 1974 1812 2181 2226 2165 2096 2018 1920 1843 1897 1680 1600 1574 1657 1725 1685 1320 1259 1300 1142 977 890 839 679 519 329 97 126 182 505 490 427 472 448 380
1229 1154 1251 1544 1549 1259 1809 1823 1914 1992 1639 2104 2102 2149 2050 1981 1961 2007 1590 1668 1784 1792 1822 1462 1446 1389 1119 871 771 663 501 323 155 24 19 20 77 263 243 144 125 190 275
1346 1237 1245 1509 1583 1458 1830 1938 1933 1937 1811 1821 1930 2000 2075 2027 2018 1928 1643 1655 1550 1523 1732 1614 1535 1155 795 599 477 333 183 70 0 0 11 86 6 82 32 14 28 31 36
1274 1261 1212 1384 1635 1500 1651 2021 1976 1797 1676 1741 1774 1400 1609 1434 1181 1533 1107 1138 1273 1309 1481 1370 1198 805 590 344 253 93 33 10 0 0 0 0 9 36 30 8 11 11 14
1133 1078 1030 1359 1654 1536 1633 1892 1752 1612 1625 1484 1307 1166 1172 1257 1157 973 1001 1070 1066 1108 1368 1084 779 577 358 165 77 14 6 0 0 0 0 17 120 45 28 10 14 15 17
812 1074 1105 1303 1729 1565 1661 1379 1012 889 672 748 744 775 922 814 753 726 1080 1027 703 950 902 703 493 334 168 71 26 2 0 0 0 0 5 7 38 31 20 9 9 14 8
681 768 917 1392 1656 1627 1468 596 349 205 208 258 300 231 148 102 123 418 652 636 907 708 755 514 209 252 115 25 2 0 0 0 0 0 0 12 35 30 17 4 9 6 10
592 623 771 1139 1397 1624 846 533 351 273 116 42 64 19 5 11 41 46 271 370 246 343 445 134 237 154 42 2 0 0 0 0 0 0 0 33 16 11 11 9 5 9 16
754 512 555 913 908 882 741 605 283 113 6 0 1 1 3 25 23 11 145 130 205 193 135 68 132 39 0 0 0 0 0 0 0 0 0 22 25 17 21 9 15 12 7
656 520 390 319 353 140 293 378 248 154 32 4 2 2 1 0 51 55 94 89 80 104 0 0 10 0 0 0 0 0 0 0 0 0 4 27 45 18 18 16 14 14 13
315 462 306 298 17 104 152 223 132 204 48 2 3 1 8 20 22 53 86 65 51 19 0 0 0 0 0 0 0 0 0 0 0 0 6 22 35 29 18 20 17 10 6
316 151 69 157 151 46 8 23 10 10 42 1 0 0 15 16 34 14 125 54 53 0 0 0 0 0 0 0 0 0 0 0 0 0 0 15 24 39 22 21 14 20 15
59 105 19 55 89 48 24 1 1 1 0 1 0 1 55 29 72 70 101 34 0 0 0 0 0 0 0 0 0 0 0 0 0 0 0 4 16 33 18 14 11 19 16
35 17 0 0 0 24 2 1 1 1 0 1 1 0 50 32 18 77 28 0 0 0 0 0 0 0 0 0 0 0 0 0 0 0 0 0 4 14 24 28 27 16 13
12 5 0 0 1 4 3 1 1 1 0 3 1 0 13 24 30 32 18 20 0 0 0 0 0 0 0 0 0 0 0 0 0 0 0 0 0 0 10 19 25 29 14
0 0 0 0 0 27 2 2 3 0 1 1 3 6 0 43 62 67 21 0 0 0 0 0 0 0 0 0 0 0 0 0 0 0 0 0 0 0 0 9 12 13 20
0 0 0 0 0 0 3 28 10 1 1 2 9 24 2 3 52 43 0 0 0 0 0 0 0 0 0 0 0 0 0 0 0 0 0 0 0 0 0 0 1 3 5
0 0 0 0 0 0 0 3 11 5 2 2 13 68 30 7 37 0 0 0 0 0 0 0 0 0 0 0 0 0 0 0 0 0 0 0 0 0 0 0 0 0 0
0 0 0 0 0 3 0 4 3 1 14 15 12 1 0 1 0 0 0 0 0 0 0 0 0 0 0 0 0 0 0 0 0 0 0 0 0 0 0 0 0 0 0
0 0 0 0 0 0 2 0 1 0 1 19 25 1 1 0 0 0 0 0 0 0 0 0 0 0 0 0 0 0 0 0 0 0 0 0 0 0 0 0 0 0 0
0 0 0 0 0 0 0 1 1 5 6 1 1 3 2 0 0 0 0 0 0 0 0 0 0 0 0 0 0 0 0 0 0 0 0 0 0 0 0 0 1 0 0
0 0 0 0 0 3 0 2 2 0 0 1 1 1 2 3 0 0 0 0 0 0 0 2 3 2 0 0 0 0 0 0 0 0 0 0 0 0 0 0 0 0 0
0 0 0 0 0 1 0 0 0 0 1 1 1 1 1 1 3 0 0 0 0 0 2 7 23 20 4 0 0 0 0 0 0 1 0 0 0 0 0 0 0 0 0
CIN
-330 -350 -205 -205 -175 -122 -92 -68 -70 -61 -55 -52 -45 -50 -39 -28 -19 -12 -0 -0 -0 -0 -0 -0 -0 -0 -0 -0 -0 -0 -1 -0 -0 -0 -1 -0 -0 -0 -0 -0 -0 -0 -0
-417 -308 -222 -193 -132 -111 -77 -59 -58 -43 -35 -35 -40 -31 -29 -20 -18 -6 -0 -0 -0 -0 -0 -0 -0 -0 -0 -0 -0 -0 -0 -0 -1 -0 -0 -0 -0 -0 -0 -0 -0 -0 -0
-386 -297 -222 -182 -120 -91 -56 -56 -27 -19 -16 -24 -34 -33 -26 -20 -14 -8 -0 -0 -0 -0 -4 -0 -0 -0 -0 -0 -0 -0 -0 -0 -1 -1 -1 -17 -3 -0 -0 -0 -0 -0 -0
-372 -315 -234 -162 -117 -141 -59 -37 -19 -24 -11 -18 -25 -25 -23 -16 -8 -5 -0 -1 -0 -0 -0 -0 -0 -1 -0 -0 -0 -0 -0 -0 -3 -16 -101 -72 -50 -0 -0 -0 -0 -0 -0
-328 -310 -244 -148 -118 -129 -57 -29 -5 -9 -38 -11 -5 -1 -1 -2 -1 -0 -2 -1 -0 -0 -0 -0 -0 -0 -0 -0 -0 -0 -0 -5 -49 -225 -263 -235 -120 -27 -16 -56 -72 -40 -11
-297 -285 -253 -159 -111 -91 -28 -11 -3 -0 -4 -5 -7 -0 -0 -0 -0 -0 -2 -2 -1 -0 -0 -0 -0 -0 -0 -3 -1 -9 -45 -123 -7 -12 -227 -116 -21 -104 -195 -1 -25 -132 -55
-291 -252 -238 -176 -104 -78 -18 -0 -0 -1 -2 -1 -4 -40 -21 -15 -9 -1 -6 -4 -5 -3 -0 -0 -0 -0 -0 -24 -28 -73 -171 -259 -0 -0 -0 -5 -227 -178 -0 -0 -1 -1 -1
-326 -294 -266 -177 -91 -68 -14 -1 -1 -2 -2 -13 -25 -22 -17 -23 -19 -16 -5 -9 -9 -6 -4 -0 -0 -1 -0 -31 -102 -206 -314 -0 -0 -0 -0 -34 -79 -170 -0 -1 -1 -1 -1
-375 -282 -230 -183 -69 -49 -5 -11 -43 -45 -83 -80 -56 -31 -6 -13 -25 -15 -6 -5 -13 -11 -3 -0 -0 -0 -16 -76 -199 -284 -0 -0 -0 -0 -39 -21 -43 -1 -0 -0 -0 -0 -0
-378 -326 -257 -138 -65 -28 -17 -105 -157 -180 -150 -137 -119 -110 -89 -117 -31 -6 -13 -6 -8 -4 -0 -0 -37 -4 -34 -129 -278 -0 -0 -0 -0 -0 -8 -11 -3 -0 -0 -0 -0 -0 -0
-372 -341 -262 -164 -84 -31 -118 -96 -125 -111 -133 -140 -121 -164 -141 -179 -88 -64 -16 -15 -49 -28 -7 -6 -18 -18 -91 -40 -0 -0 -0 -0 -0 -0 -0 -6 -0 -0 -1 -1 -0 -0 -0
-331 -356 -314 -194 -164 -132 -119 -88 -132 -140 -58 -0 -34 -75 -185 -156 -95 -139 -49 -16 -9 -25 -10 -21 -16 -69 -0 -0 -0 -0 -0 -0 -0 -0 -0 -5 -0 -0 -0 -0 -0 -0 -0
-376 -365 -364 -338 -282 -318 -230 -133 -126 -110 -108 -0 -0 -1 -1 -6 -44 -75 -31 -30 -16 -19 -0 -0 -31 -0 -0 -0 -0 -0 -0 -0 -0 -0 -5 -5 -0 -0 -0 -0 -0 -0 -0
-474 -385 -389 -342 -447 -334 -273 -197 -169 -73 -91 -0 -104 -0 -92 -70 -35 -40 -24 -38 -8 -51 -0 -0 -0 -0 -0 -0 -0 -0 -0 -0 -0 -0 -5 -11 -2 -0 -0 -0 -1 -0 -0
-473 -492 -480 -394 -327 -353 -233 -182 -54 -99 -87 -0 -0 -0 -65 -27 -17 -49 -3 -14 -27 -0 -0 -0 -0 -0 -0 -0 -0 -0 -0 -0 -0 -0 -0 -15 -7 -0 -0 -0 -0 -0 -0
-612 -532 -581 -471 -347 -341 -352 -0 -0 -0 -0 -0 -0 -32 -43 -34 -24 -29 -1 -5 -4 -0 -0 -0 -0 -0 -0 -0 -0 -0 -0 -0 -0 -0 -0 -18 -14 -4 -0 -0 -0 -0 -0
-703 -667 -0 -34 -18 -361 -25 -0 -0 -0 -0 -0 -0 -0 -47 -55 -44 -7 -4 -27 -0 -0 -0 -0 -0 -0 -0 -0 -0 -0 -0 -0 -0 -0 -0 -0 -15 -7 -8 -1 -0 -0 -0
-812 -572 -0 -0 -0 -67 -0 -0 -0 -0 -0 -1 -0 -0 -85 -45 -13 -29 -23 -123 -0 -0 -0 -0 -0 -0 -0 -0 -0 -0 -0 -0 -0 -0 -0 -0 -0 -8 -17 -7 -2 -0 -0
-0 -0 -0 -0 -0 -165 -0 -0 -0 -0 -0 -1 -0 -87 -21 -20 -11 -35 -74 -34 -0 -0 -0 -0 -0 -0 -0 -0 -0 -0 -0 -0 -0 -0 -0 -0 -0 -0 -0 -14 -9 -6 -1
-0 -0 -0 -0 -0 -0 -62 -156 -2 -0 -0 -0 -21 -17 -9 -34 -4 -13 -0 -0 -0 -0 -0 -0 -0 -0 -0 -0 -0 -0 -0 -0 -0 -0 -0 -0 -0 -0 -0 -0 -5 -13 -9
-0 -0 -0 -0 -0 -0 -0 -2 -3 -3 -0 -0 -3 -0 -1 -3 -3 -0 -0 -0 -0 -0 -0 -0 -0 -0 -0 -0 -0 -0 -0 -0 -0 -0 -0 -0 -0 -0 -0 -0 -0 -0 -0
-0 -0 -0 -0 -0 -2 -0 -2 -4 -14 -1 -14 -6 -0 -0 -0 -0 -0 -0 -0 -0 -0 -0 -0 -0 -0 -0 -0 -0 -0 -0 -0 -0 -0 -0 -0 -0 -0 -0 -0 -0 -0 -0
-0 -0 -0 -0 -1 -2 -2 -8 -3 -9 -0 -2 -1 -32 -0 -0 -0 -0 -0 -0 -0 -0 -0 -0 -0 -0 -0 -0 -0 -0 -0 -0 -0 -0 -0 -0 -0 -0 -0 -0 -0 -0 -0
-0 -0 -0 -0 -0 -1 -5 -4 -6 -1 -3 -0 -0 -0 -0 -0 -0 -0 -0 -0 -0 -0 -0 -0 -0 -0 -0 -0 -0 -0 -0 -0 -0 -0 -0 -0 -0 -0 -0 -0 -245 -0 -0
-0 -0 -0 -0 -0 -1 -1 -13 -6 -0 -0 -0 -0 -0 -0 -0 -0 -0 -0 -0 -0 -0 -0 -227 -210 -185 -0 -0 -0 -0 -0 -0 -0 -0 -0 -0 -0 -0 -0 -0 -0 -0 -0
-0 -0 -0 -0 -1 -3 -8 -7 -0 -0 -0 -0 -0 -0 -0 -0 -0 -0 -0 -0 -0 -0 -40 -193 -211 -202 -184 -0 -0 -0 -0 -0 -0 -188 -0 -0 -0 -0 -0 -0 -0 -0 -0
Wind_Speed
5 8 13 15 15 13 12 12 12 14 19 22 22 23 23 22 21 20 17 16 19 19 20 20 19 19 19 20 19 18 19 19 19 19 20 22 23 23 21 20 18 16 21
9 12 14 15 14 14 12 13 13 15 19 21 22 22 22 22 22 19 16 18 19 20 22 22 21 19 21 21 20 20 19 17 18 19 20 22 23 23 22 19 18 17 22
8 11 12 15 16 15 13 15 14 15 18 21 23 23 22 21 20 19 19 19 20 21 22 21 21 21 23 20 19 20 19 18 18 18 18 11 14 23 22 20 20 20 20
9 9 11 14 16 20 16 15 15 18 17 19 21 23 22 22 20 20 18 19 19 20 22 22 23 23 22 20 20 20 19 17 18 16 10 11 13 22 22 21 21 21 21
8 9 12 14 15 19 17 15 15 16 18 17 17 18 18 19 20 17 16 17 20 21 21 22 23 22 21 21 20 20 19 17 16 12 10 7 7 17 20 19 18 19 17
8 8 10 14 14 17 16 16 14 14 14 16 19 18 17 15 18 18 14 16 19 20 20 21 21 22 21 21 20 19 19 18 15 10 9 11 8 19 20 17 16 16 16
9 8 11 15 13 15 16 16 15 13 14 15 17 21 21 18 14 14 14 16 16 18 19 20 21 20 20 21 20 19 19 18 9 8 7 8 11 21 18 17 16 17 17
10 11 11 16 15 14 15 15 15 16 15 14 12 15 15 17 14 12 14 13 14 13 19 20 21 19 19 19 19 18 17 16 9 9 8 9 17 19 18 17 17 17 17
6 7 7 11 12 11 12 12 15 17 19 17 14 12 10 13 17 16 17 14 13 17 19 19 19 19 19 18 18 16 15 13 7 7 10 6 18 18 17 18 17 17 17
6 6 11 9 10 9 7 17 21 22 21 20 20 19 15 12 6 10 16 18 16 18 18 19 19 19 18 16 16 15 14 13 8 7 7 6 17 18 17 18 18 18 18
4 6 7 11 10 11 10 14 21 22 22 21 20 22 15 9 6 5 7 12 19 19 17 17 17 17 16 15 15 15 12 4 7 5 5 13 16 18 17 18 18 18 18
8 6 7 9 10 10 9 13 13 13 9 10 8 12 10 12 13 15 10 9 17 17 17 17 18 17 12 6 7 10 5 5 6 4 3 14 16 18 18 18 18 18 17
9 5 8 7 9 11 9 8 6 7 8 7 8 8 8 7 9 8 7 6 7 14 9 11 12 7 8 7 4 5 6 6 4 3 6 13 16 19 18 18 17 17 17
9 10 8 10 9 8 7 7 8 8 8 8 8 11 7 6 7 6 6 8 9 7 10 8 7 6 6 7 7 7 6 5 4 3 6 11 14 18 18 18 17 17 17
10 10 11 11 10 8 9 6 7 7 8 8 8 11 9 9 9 8 7 7 8 7 8 8 8 9 6 7 6 7 7 5 5 3 2 11 12 15 17 18 18 18 17
9 12 10 11 10 9 8 9 7 7 7 8 8 9 13 9 8 10 8 9 8 9 8 7 9 9 8 8 7 6 6 7 5 5 3 5 10 11 15 17 17 17 17
10 10 12 10 12 10 9 8 6 6 7 7 8 10 12 11 11 11 9 9 9 7 11 7 7 6 9 5 7 5 5 6 5 5 4 4 5 9 10 12 15 16 16
8 12 8 6 9 10 9 8 6 7 7 7 7 9 9 12 13 11 9 8 8 8 8 8 8 7 8 7 5 4 4 4 5 5 4 3 3 3 6 10 11 13 14
10 10 9 7 9 8 8 8 8 9 7 7 7 9 11 10 11 11 10 10 10 9 9 8 5 9 8 7 7 5 4 5 5 4 5 5 5 4 3 8 10 11 12
10 9 9 5 7 5 4 6 6 7 8 8 8 9 14 9 12 12 9 10 11 10 9 9 10 3 8 9 7 5 3 3 3 4 4 3 4 5 4 4 4 5 11
10 13 12 8 7 7 4 5 4 8 8 8 9 11 14 14 13 14 10 11 11 12 12 11 9 10 4 6 8 3 3 3 2 2 3 3 4 5 5 5 4 3 5
14 14 11 11 8 6 4 3 2 2 4 7 9 10 12 12 14 13 13 12 11 10 12 12 12 5 4 8 5 4 3 2 1 4 3 5 6 4 6 7 6 7 6
16 15 13 11 10 8 5 4 2 3 2 5 8 10 10 12 11 12 12 11 10 10 11 12 11 9 8 4 10 6 4 4 3 2 6 6 6 6 7 7 8 9 9
15 13 12 12 12 8 7 6 6 2 3 1 3 8 10 13 11 10 12 11 11 8 10 10 9 6 8 9 1 1 3 6 4 2 2 6 7 8 8 6 8 9 9
13 13 12 12 11 9 7 7 5 5 3 4 5 10 12 12 11 8 10 11 9 7 8 10 8 6 7 7 4 3 2 2 3 3 3 3 3 6 7 9 7 7 9
11 12 11 14 11 9 8 7 7 8 7 5 6 8 9 9 10 10 8 7 5 5 7 7 6 7 7 6 6 4 4 4 4 4 2 3 4 4 7 7 8 8 8
Wind_Direction
212 159 162 165 162 157 143 137 135 134 136 140 143 143 142 143 144 142 142 138 134 132 131 129 127 127 132 125 123 118 112 114 117 118 117 114 111 107 102 97 97 99 98
127 154 160 167 163 162 149 143 142 140 138 140 142 142 143 144 144 142 141 136 133 132 133 133 130 130 126 128 124 118 114 115 114 116 116 115 111 108 103 98 98 100 100
133 147 159 164 162 161 160 147 145 142 140 143 144 146 146 148 146 144 145 138 138 139 142 138 135 133 132 128 121 119 118 116 114 112 106 107 109 111 104 100 101 98 98
143 154 161 166 166 169 163 155 147 149 145 146 148 150 151 150 149 145 148 141 142 141 144 140 137 137 133 127 126 123 118 113 111 106 106 110 116 114 109 107 105 103 100
148 156 168 168 169 174 163 156 151 155 157 148 144 143 145 149 147 151 149 145 144 147 146 145 142 136 131 127 125 120 115 110 103 98 95 88 110 119 113 108 99 101 105
153 157 159 164 171 174 165 156 159 146 143 144 145 146 149 154 151 147 148 146 150 150 151 146 141 135 133 128 125 119 115 107 97 99 104 109 107 112 98 101 110 102 96
154 166 171 172 171 178 173 157 153 146 142 144 148 151 148 155 156 145 150 156 156 152 150 145 133 139 133 130 126 122 115 110 106 101 104 112 111 105 117 121 120 118 112
157 169 176 174 176 178 173 158 151 148 146 151 143 138 148 137 144 163 164 157 160 165 141 138 139 137 135 130 125 121 117 115 109 111 113 100 115 123 127 127 121 117 116
146 153 170 178 179 173 164 146 138 132 131 125 136 147 138 153 154 184 161 165 183 146 143 141 135 138 134 131 126 121 117 119 118 109 95 110 121 128 133 129 127 123 124
156 160 175 176 171 177 172 144 137 134 135 135 128 122 117 86 63 177 157 184 155 149 144 141 137 141 135 131 124 122 119 104 98 96 109 131 135 137 138 135 130 129 129
171 172 169 175 182 179 149 156 150 148 148 146 143 137 128 143 181 226 193 176 172 150 140 137 137 137 129 122 118 117 103 99 101 92 138 145 151 145 144 138 137 135 135
191 182 176 179 182 180 164 165 163 163 159 157 157 156 156 157 189 189 179 198 184 148 134 130 130 131 122 123 121 107 110 105 109 115 137 155 153 144 144 143 141 140 140
187 169 181 174 184 181 168 171 170 167 170 181 170 176 171 177 185 181 181 176 182 147 136 131 134 133 130 134 105 117 120 117 122 124 164 158 151 151 152 149 143 145 141
179 181 176 181 187 185 176 170 177 177 172 182 183 177 175 178 188 170 172 167 185 156 135 137 139 127 125 113 125 127 126 132 135 132 165 155 154 157 154 153 151 149 148
193 180 182 178 182 180 185 174 177 179 180 178 173 183 180 186 180 166 163 162 148 142 132 137 141 136 125 123 124 141 139 133 134 127 131 155 155 161 160 156 159 155 156
185 190 173 182 184 178 185 177 177 171 166 168 165 188 182 178 173 173 159 150 145 153 138 142 149 148 137 145 135 138 151 146 134 136 136 150 158 167 171 164 163 161 162
190 169 172 175 188 185 184 180 176 171 162 173 175 180 179 174 169 156 150 150 155 147 138 125 123 125 125 142 139 140 139 148 144 143 134 139 161 174 171 166 168 168 167
150 167 156 164 185 190 181 178 177 173 172 177 174 177 179 180 176 152 160 154 155 145 144 146 146 144 139 151 130 142 138 126 130 140 136 133 150 158 170 167 174 173 176
156 154 158 167 185 181 185 179 184 179 179 185 174 183 186 182 177 165 162 159 151 146 152 147 137 150 146 147 147 130 136 141 151 151 150 157 174 165 165 179 179 180 182
149 146 148 166 177 180 163 167 177 181 190 178 187 189 186 191 178 167 154 152 156 153 156 158 156 139 150 151 141 114 77 100 145 150 161 164 185 185 183 180 182 197 190
146 151 165 166 172 184 175 172 182 181 190 187 190 187 185 190 181 160 150 150 160 165 165 159 154 141 110 132 114 77 63 82 128 176 162 181 196 203 195 186 186 200 207
160 159 165 182 177 183 181 177 155 134 192 189 187 165 146 155 152 154 154 162 160 151 163 162 167 133 111 166 136 115 120 26 258 204 186 200 201 205 214 204 194 203 204
168 162 170 175 185 185 157 143 111 110 84 175 191 151 145 143 148 150 153 157 159 158 170 169 168 160 155 191 172 140 136 190 149 164 208 221 198 211 218 214 208 212 211
168 161 162 173 183 182 159 155 173 190 152 7 130 137 140 144 148 148 149 154 152 162 172 178 174 168 149 171 131 26 82 138 162 174 220 218 212 206 218 222 214 218 216
157 165 164 171 181 163 165 158 158 138 117 124 129 139 142 147 148 136 136 143 155 164 167 170 162 165 157 161 155 135 113 81 97 134 185 192 207 219 211 220 219 219 218
162 170 162 170 177 162 154 145 153 136 136 141 134 144 145 143 146 144 138 133 136 153 158 164 165 166 167 162 182 171 159 165 168 140 163 181 199 208 212 211 214 223 224